{"data":{"norad_id":59748,"epoch":"2026-09-21T10:01:42.624480Z","epoch_age_seconds":92032,"freshness":"FRESH","line1":"1 59748U 24090U   26264.41785445  .00000644  00000+0  32916-4 0  9994","line2":"2 59748  43.0013 158.1748 0001069 271.7670  88.3059 15.27570485133370","mean_motion":15.27570485,"eccentricity":0.0001069,"inclination_deg":43.0013,"raan_deg":158.1748,"arg_perigee_deg":271.767,"mean_anomaly_deg":88.3059,"bstar":3.2916e-5,"rev_number":13337,"period_min":94.267335886632,"perigee_km":482.34412368114,"apogee_km":483.81105135995,"semimajor_km":6861.2145875205,"source":"CELESTRAK","updated_at":"2026-09-22T09:00:49.065638Z"}}